{"data":{"norad_id":48401,"epoch":"2026-05-24T19:13:50.039040Z","epoch_age_seconds":82329,"freshness":"FRESH","line1":"1 48401U 21038BA  26144.80127360  .00000595  00000+0  30925-4 0  9996","line2":"2 48401  53.1604 338.9007 0001243  80.6325 279.4817 15.31710408279097","mean_motion":15.31710408,"eccentricity":0.0001243,"inclination_deg":53.1604,"raan_deg":338.9007,"arg_perigee_deg":80.6325,"mean_anomaly_deg":279.4817,"bstar":3.0925e-5,"rev_number":27909,"period_min":94.012549139772,"perigee_km":469.85765814089,"apogee_km":471.56028124895,"semimajor_km":6848.8459696949,"source":"CELESTRAK","updated_at":"2026-05-25T13:38:16.711873Z"}}